Location: Dilsberg
(49.3983°N, 8.8354°E)
Time: 09:59:44
(UTC+00:00)

Meteor 2-13 Rocket - Pass Details

Date: 19 May 2025
Orbit: 934 x 958 km, 82.5° (Epoch: 23 June)

Event Time Altitude Azimuth Distance (km) Brightness Sun altitude
Exits shadow 22:19:04 32° 180° (S) 1,577 5.1 -19.3°
Maximum altitude 22:22:06 80° 98° (E) 975 4.4 -19.4°
Drops below altitude 10° 22:28:15 10° 12° (NNE) 2,687 7.8 -19.6°
Sets 22:30:45 0° 11° (NNE) 3,633 8.7 -19.7°
